Location: Newark
(41.8083°N, 72.2500°W)
Time: 11:44:27
(UTC+00:00)

Altair - Pass Details

Date: 09 December 2021
Orbit: 1501 x 1683 km, 47.2° (Epoch: 20 January)

Event Time Altitude Azimuth Distance (km) Brightness Sun altitude
Rises 23:17:55 0° 291° (WNW) 4,726 11.0 -21.6°
Reaches altitude 10° 23:21:01 10° 293° (WNW) 3,720 10.3 -22.1°
Maximum altitude 23:30:24 77° 20° (NNE) 1,546 7.3 -23.9°
Enters shadow 23:34:25 39° 99° (E) 2,117 7.7 -24.6°
